Location: Juzet
(42.9779°N, 0.7597°E)
Time: 02:04:37
(UTC+00:00)

Cosmos 2221 Rocket - Pass Details

Date: 14 July 2020
Orbit: 619 x 649 km, 82.5° (Epoch: 04 August)

Event Time Altitude Azimuth Distance (km) Brightness Sun altitude
Rises 02:10:55 0° 350° (N) 2,909 7.8 -19.0°
Reaches altitude 10° 02:13:10 10° 349° (N) 1,996 6.8 -18.8°
Maximum altitude 02:17:34 78° 264° (W) 638 3.5 -18.4°
Enters shadow 02:19:26 34° 183° (S) 1,022 4.2 -18.2°
